Weather Service Report


785 
ASUS46 KSEW 191910
RWRWA 

WASHINGTON REGIONAL WEATHER ROUNDUP
NATIONAL WEATHER SERVICE SEATTLE WA
1100 AM PST SUN NOV 19 2017

NOTE:"FAIR" INDICATES FEW OR NO CLOUDS BELOW 12,000 FEET WITH NO 
SIGNIFICANT WEATHER AND/OR OBSTRUCTIONS TO VISIBILITY.

WAZ507-509-555>559-192000-
SEATTLE, TACOMA, EVERETT, AND VICINITY
  
CITY           SKY/WX    TMP DP  RH WIND       PRES   REMARKS
EVERETT        CLOUDY    48  31  51 S23G32    29.84F                  
BOEING FIELD   CLOUDY    49  32  52 CALM      29.88F                  
RENTON         CLOUDY    49  33  54 SE3       29.87F                  
SEATAC AIRPORT CLOUDY    50  33  52 SW8       29.87F                  
JBLM-MCCHORD   CLOUDY    52  35  52 S10       29.87F                  
PUYALLUP       PTSUNNY   54  23  30 S12G22    29.87F                  
BREMERTON      CLOUDY    44  36  73 SW16G28   29.87F                  
JBLM-FT LEWIS  CLOUDY    51  35  55 S17       29.86F                  
TACOMA NARROWS CLOUDY    48  35  60 S8        29.87F                  
$$
 
WAZ001-503-506-510-514-515-192000-
NORTH INTERIOR
  
CITY           SKY/WX    TMP DP  RH WIND       PRES   REMARKS
BELLINGHAM     LGT RAIN  50  35  56 SE33G44   29.68F                  
FRIDAY HARBOR  CLOUDY    47  40  76 SE24G43   29.70F                  
EASTSOUND      LGT RAIN  48  39  71 S17G35    29.69F                  
PORT ANGELES   CLOUDY    49  40  71 E3        29.66F                  
EDIZ HOOK      FAIR      47  40  76 CALM      29.65F                  
PORT TOWNSEND  FAIR      46  37  71 S18G48    29.73F                  
NAS WHIDBEY    LGT RAIN  51  34  52 SE40G59   29.77F                  
ARLINGTON      CLOUDY    50  29  44 SE23      29.82F                  
BURLINGTON     CLOUDY    50  32  50 SE18G35   29.75F                  
$$
 
WAZ020-022-039-040-504-511-512-192000-
SOUTHWEST INTERIOR
  
CITY           SKY/WX    TMP DP  RH WIND       PRES   REMARKS
SHELTON        CLOUDY    45  39  79 W5        29.86F                  
OLYMPIA        CLOUDY    45  36  70 SW18      29.90F                  
CHEHALIS       PTSUNNY   45  37  76 S21G29    29.92F                  
KELSO          PTSUNNY   42  37  82 S14G22    29.99F                  
VANCOUVER      CLOUDY    42  39  89 SE7       30.03F                  
SCAPPOOSE, OR  CLOUDY    40  38  93 SE9       30.02F                  
PORTLAND, OR   CLOUDY    41  38  89 E8        30.03F                  
$$
 
WAZ021-516-517-192000-
WASHINGTON COAST
  
CITY           SKY/WX    TMP DP  RH WIND       PRES   REMARKS
FORKS          LGT RAIN  46  44  93 S12G37    29.71F FOG              
HOQUIAM        CLOUDY    49  41  74 SE15G23   29.86F                  
ASTORIA, OR    CLOUDY    50  41  71 SE8       29.91F                  
$$
 
WAZ019-023-024-040-567>569-192000-
CASCADE MOUNTAINS AND COLUMBIA GORGE
  
CITY           SKY/WX    TMP DP  RH WIND       PRES   REMARKS
STAMPEDE PASS  CLOUDY    36  28  73 CALM      29.84F                  
TROUTDALE, OR  PTSUNNY   43  37  79 VRB3      30.03F                  
HOOD RIVER, OR CLOUDY    32  32 100 CALM      30.03F FOG              
THE DALLES, OR CLOUDY    35  33  92 CALM      30.05F                  
$$

WAZ026-027-041>044-520-521-192000-
EAST SLOPES
  
CITY           SKY/WX    TMP DP  RH WIND       PRES   REMARKS
OMAK           CLOUDY    39  33  79 SW10      29.89F                  
WENATCHEE      PTSUNNY   33  32  96 SE6       29.92F                  
ELLENSBURG     FOG       31  30  96 MISG      29.93F VSB 1/4          
YAKIMA         CLOUDY    38  31  76 CALM      29.96F                  
SUNNYSIDE ARPT CLOUDY    33  31  91 CALM      29.97F                  
YAKIMA TC      FAIR      32  30  90 CALM      29.93F                  
$$

WAZ028-034-035-192000-
COLUMBIA BASIN
  
CITY           SKY/WX    TMP DP  RH WIND       PRES   REMARKS
EPHRATA        CLOUDY    34  28  79 N6        29.93F                  
MOSES LAKE     CLOUDY    35  33  92 CALM      29.93F                  
PASCO          CLOUDY    45  33  63 SE6       29.99F                  
RICHLAND ARPT  CLOUDY    44  34  67 S6        29.99F                  
HERMISTON, OR  CLOUDY    39  34  82 CALM      29.99F                  
$$

WAZ036>038-192000-
NORTHEAST WASHINGTON
  
CITY           SKY/WX    TMP DP  RH WIND       PRES   REMARKS
SPOKANE GEIGER CLOUDY    40  27  59 S12       29.94F                  
SPOKANE FELTS  PTSUNNY   46  26  45 S8G17     29.96F                  
FAIRCHILD AFB  MOSUNNY   40  27  59 S10       29.92F                  
COEURDALENE,ID CLOUDY    42  28  57 S13       29.97F                  
DEER PARK      PTSUNNY   37  29  72 CALM      29.96F                  
$$

WAZ029>033-192000-
SOUTHEAST WASHINGTON
  
CITY           SKY/WX    TMP DP  RH WIND       PRES   REMARKS
PULLMAN        CLOUDY    40  26  57 SE14      30.00F                  
LEWISTON, ID   CLOUDY    50  27  40 S9        30.00F                  
WALLA WALLA    CLOUDY    48  28  46 NE3       29.96F                  
PENDLETON, OR  PTSUNNY   48  31  51 CALM      29.96F                  
$$
  

Return to Home page


Western Regional Climate Center, wrcc@dri.edu